Location: La Sioule Rivi�re
(46.3664°N, 3.3197°E)
Time: 12:41:41
(UTC+00:00)

PSLV R/B - Pass Details

Date: 29 October 2020
Orbit: 567 x 599 km, 98.2° (Epoch: 23 November)

Event Time Altitude Azimuth Distance (km) Brightness Sun altitude
Rises 17:34:05 0° 20° (NNE) 2,839 7.2 -10.5°
Reaches altitude 10° 17:36:23 10° 29° (NNE) 1,927 6.2 -10.9°
Maximum altitude 17:40:18 39° 98° (E) 893 4.4 -11.6°
Drops below altitude 10° 17:44:09 10° 168° (SSE) 1,894 6.5 -12.3°
Sets 17:46:24 0° 176° (S) 2,782 7.5 -12.7°
